• en Belgique
  • Liste des pays
  • À 7 jours
  • Température de l'eau
  • Carte satellitaire
  • Carte météo
  • Widgets météo
  • user-avatar
    Se connecter

    Météo par heure à Tebessa

    Ce jour, 20 Septembre, Mercredi

    Heure Température Précipitation Vent Pression Humidité
    00:00 +18°C° 0 mm 4 m/s 688 mmHg 59%
    01:00 +17°C° 0 mm 3 m/s 688 mmHg 62%
    02:00 +17°C° 0 mm 2 m/s 688 mmHg 63%
    03:00 +17°C° 0 mm 2 m/s 687 mmHg 64%
    04:00 +16°C° 0 mm 1 m/s 687 mmHg 66%
    05:00 +16°C° 0 mm 1 m/s 687 mmHg 66%
    06:00 +16°C° 0 mm 1 m/s 688 mmHg 66%
    07:00 +16°C° 0 mm 1 m/s 688 mmHg 66%
    08:00 +17°C° 0 mm 2 m/s 688 mmHg 62%
    09:00 +18°C° 0 mm 3 m/s 689 mmHg 57%
    10:00 +19°C° 0 mm 4 m/s 689 mmHg 52%
    11:00 +20°C° 0 mm 4 m/s 689 mmHg 48%
    12:00 +21°C° 0 mm 4 m/s 689 mmHg 45%
    13:00 +22°C° 0 mm 4 m/s 689 mmHg 42%
    14:00 +22°C° 0 mm 4 m/s 689 mmHg 40%
    15:00 +22°C° 0 mm 4 m/s 689 mmHg 39%
    16:00 +23°C° 0 mm 4 m/s 689 mmHg 38%
    17:00 +22°C° 0 mm 4 m/s 689 mmHg 41%
    18:00 +21°C° 0 mm 4 m/s 689 mmHg 44%
    19:00 +21°C° 0 mm 4 m/s 689 mmHg 46%
    20:00 +20°C° 0 mm 3 m/s 689 mmHg 49%
    21:00 +19°C° 0 mm 3 m/s 689 mmHg 53%
    22:00 +18°C° 0 mm 2 m/s 689 mmHg 56%
    23:00 +18°C° 0 mm 2 m/s 689 mmHg 57%

    Demain, 21 Septembre, Jeudi

    Heure Température Précipitation Vent Pression Humidité
    00:00 +18°C° 0 mm 2 m/s 689 mmHg 58%
    01:00 +17°C° 0 mm 2 m/s 689 mmHg 59%
    02:00 +17°C° 0 mm 2 m/s 689 mmHg 60%
    03:00 +18°C° 0 mm 1 m/s 688 mmHg 62%
    04:00 +16°C° 0 mm 1 m/s 688 mmHg 63%
    05:00 +16°C° 0 mm 1 m/s 688 mmHg 63%
    06:00 +16°C° 0 mm 1 m/s 688 mmHg 63%
    07:00 +16°C° 0 mm 1 m/s 688 mmHg 63%
    08:00 +18°C° 0 mm 2 m/s 689 mmHg 58%
    09:00 +19°C° 0 mm 2 m/s 689 mmHg 54%
    10:00 +20°C° 0 mm 2 m/s 690 mmHg 49%
    11:00 +23°C° 0 mm 2 m/s 689 mmHg 44%
    12:00 +24°C° 0 mm 2 m/s 689 mmHg 39%
    13:00 +25°C° 0 mm 2 m/s 689 mmHg 33%
    14:00 +26°C° 0 mm 2 m/s 689 mmHg 31%
    15:00 +26°C° 0 mm 2 m/s 689 mmHg 29%
    16:00 +27°C° 0 mm 2 m/s 688 mmHg 27%
    17:00 +26°C° 0 mm 2 m/s 688 mmHg 28%
    18:00 +26°C° 0 mm 2 m/s 688 mmHg 30%
    19:00 +25°C° 0 mm 3 m/s 688 mmHg 32%
    20:00 +25°C° 0 mm 3 m/s 688 mmHg 35%
    21:00 +24°C° 0 mm 3 m/s 688 mmHg 38%
    22:00 +23°C° 0 mm 2 m/s 689 mmHg 41%
    23:00 +21°C° 0 mm 2 m/s 688 mmHg 44%

    Après-demain, 22 Septembre, Vendredi

    Heure Température Précipitation Vent Pression Humidité
    00:00 +21°C° 0 mm 2 m/s 688 mmHg 47%
    01:00 +20°C° 0 mm 2 m/s 688 mmHg 49%
    02:00 +20°C° 0 mm 2 m/s 688 mmHg 52%
    03:00 +20°C° 0 mm 1 m/s 687 mmHg 54%
    04:00 +20°C° 0 mm 1 m/s 687 mmHg 56%
    05:00 +20°C° 0 mm 1 m/s 687 mmHg 56%
    06:00 +20°C° 0 mm 1 m/s 687 mmHg 56%
    07:00 +20°C° 0 mm 1 m/s 688 mmHg 56%
    08:00 +21°C° 0 mm 1 m/s 688 mmHg 49%
    09:00 +23°C° 0 mm 2 m/s 689 mmHg 42%
    10:00 +25°C° 0 mm 2 m/s 689 mmHg 36%
    11:00 +26°C° 0 mm 2 m/s 689 mmHg 32%
    12:00 +27°C° 0 mm 2 m/s 689 mmHg 29%
    13:00 +28°C° 0 mm 2 m/s 689 mmHg 25%
    14:00 +28°C° 0 mm 2 m/s 689 mmHg 24%
    15:00 +29°C° 0 mm 2 m/s 689 mmHg 23%
    16:00 +29°C° 0 mm 2 m/s 689 mmHg 22%
    17:00 +28°C° 0 mm 2 m/s 689 mmHg 25%
    18:00 +28°C° 0 mm 2 m/s 689 mmHg 27%
    19:00 +27°C° 0 mm 3 m/s 689 mmHg 29%
    20:00 +26°C° 0 mm 3 m/s 689 mmHg 34%
    21:00 +25°C° 0 mm 3 m/s 689 mmHg 38%
    22:00 +24°C° 0 mm 2 m/s 689 mmHg 43%
    23:00 +24°C° 0 mm 2 m/s 689 mmHg 45%

    23 Septembre, Samedi

    Heure Température Précipitation Vent Pression Humidité
    00:00 +23°C° 0 mm 2 m/s 689 mmHg 48%
    01:00 +23°C° 0 mm 2 m/s 689 mmHg 50%
    02:00 +21°C° 0 mm 2 m/s 689 mmHg 51%
    03:00 +22°C° 0 mm 1 m/s 688 mmHg 53%
    04:00 +21°C° 0 mm 1 m/s 688 mmHg 54%
    05:00 +21°C° 0 mm 1 m/s 688 mmHg 53%
    06:00 +21°C° 0 mm 1 m/s 688 mmHg 53%
    07:00 +21°C° 0 mm 1 m/s 688 mmHg 52%
    08:00 +23°C° 0 mm 2 m/s 689 mmHg 46%
    09:00 +25°C° 0 mm 2 m/s 689 mmHg 40%
    10:00 +26°C° 0 mm 2 m/s 690 mmHg 33%
    11:00 +27°C° 0 mm 3 m/s 690 mmHg 31%
    12:00 +28°C° 0 mm 3 m/s 690 mmHg 28%
    13:00 +29°C° 0 mm 3 m/s 690 mmHg 25%
    14:00 +29°C° 0 mm 4 m/s 690 mmHg 27%
    15:00 +29°C° 0 mm 5 m/s 690 mmHg 28%
    16:00 +28°C° 0 mm 6 m/s 690 mmHg 29%
    17:00 +27°C° 0 mm 4 m/s 689 mmHg 35%
    18:00 +26°C° 0 mm 3 m/s 689 mmHg 40%
    19:00 +25°C° 0 mm 2 m/s 689 mmHg 45%
    20:00 +24°C° 0,1 mm 2 m/s 689 mmHg 48%
    21:00 +23°C° 0,1 mm 2 m/s 689 mmHg 51%
    22:00 +23°C° 0,1 mm 2 m/s 689 mmHg 54%
    23:00 +21°C° 0,4 mm 2 m/s 689 mmHg 58%

    24 Septembre, Dimanche

    Heure Température Précipitation Vent Pression Humidité
    00:00 +21°C° 0,4 mm 2 m/s 689 mmHg 61%
    01:00 +20°C° 0,4 mm 2 m/s 688 mmHg 65%
    02:00 +20°C° 0,3 mm 2 m/s 688 mmHg 66%
    03:00 +20°C° 0,3 mm 2 m/s 688 mmHg 67%
    04:00 +19°C° 0,3 mm 2 m/s 687 mmHg 69%
    05:00 +19°C° 0,1 mm 2 m/s 688 mmHg 69%
    06:00 +19°C° 0,1 mm 2 m/s 688 mmHg 70%
    07:00 +19°C° 0,1 mm 2 m/s 688 mmHg 70%
    08:00 +21°C° 0,3 mm 2 m/s 688 mmHg 62%
    09:00 +22°C° 0,3 mm 3 m/s 689 mmHg 54%
    10:00 +25°C° 0,3 mm 3 m/s 689 mmHg 47%
    11:00 +26°C° 0,2 mm 4 m/s 689 mmHg 43%
    12:00 +26°C° 0,2 mm 4 m/s 689 mmHg 40%
    13:00 +27°C° 0,2 mm 4 m/s 689 mmHg 36%
    14:00 +27°C° 0,1 mm 5 m/s 689 mmHg 37%
    15:00 +27°C° 0,1 mm 5 m/s 689 mmHg 37%
    16:00 +27°C° 0,1 mm 5 m/s 688 mmHg 38%
    17:00 +26°C° 0 mm 6 m/s 689 mmHg 41%
    18:00 +24°C° 0 mm 6 m/s 689 mmHg 44%
    19:00 +23°C° 0 mm 7 m/s 689 mmHg 48%
    20:00 +22°C° 0 mm 6 m/s 689 mmHg 53%
    21:00 +21°C° 0 mm 5 m/s 689 mmHg 58%
    22:00 +20°C° 0 mm 4 m/s 689 mmHg 62%
    23:00 +19°C° 0 mm 3 m/s 689 mmHg 65%

    25 Septembre, Lundi

    Heure Température Précipitation Vent Pression Humidité
    00:00 +19°C° 0 mm 3 m/s 689 mmHg 68%
    01:00 +18°C° 0 mm 2 m/s 689 mmHg 71%
    02:00 +18°C° 0 mm 2 m/s 689 mmHg 73%
    03:00 +18°C° 0 mm 2 m/s 688 mmHg 75%
    04:00 +17°C° 0 mm 2 m/s 688 mmHg 77%
    05:00 +17°C° 0 mm 2 m/s 688 mmHg 78%
    06:00 +17°C° 0 mm 2 m/s 688 mmHg 79%
    07:00 +17°C° 0 mm 2 m/s 688 mmHg 80%
    08:00 +18°C° 0 mm 2 m/s 689 mmHg 71%
    09:00 +19°C° 0 mm 2 m/s 689 mmHg 61%
    10:00 +20°C° 0 mm 2 m/s 690 mmHg 52%
    11:00 +23°C° 0 mm 2 m/s 689 mmHg 46%
    12:00 +24°C° 0 mm 2 m/s 689 mmHg 40%
    13:00 +25°C° 0 mm 2 m/s 689 mmHg 34%
    14:00 +25°C° 0 mm 2 m/s 689 mmHg 32%
    15:00 +25°C° 0 mm 3 m/s 689 mmHg 30%
    16:00 +26°C° 0 mm 3 m/s 689 mmHg 28%
    17:00 +25°C° 0 mm 3 m/s 689 mmHg 32%
    18:00 +24°C° 0 mm 3 m/s 689 mmHg 35%
    19:00 +24°C° 0 mm 3 m/s 689 mmHg 38%
    20:00 +22°C° 0 mm 3 m/s 689 mmHg 43%
    21:00 +21°C° 0 mm 3 m/s 689 mmHg 48%
    22:00 +21°C° 0 mm 3 m/s 689 mmHg 54%
    23:00 +20°C° 0 mm 2 m/s 689 mmHg 57%
    Voir plus